When you browse on this site, cookies collect data to enhance your experience and personalize the content and advertising you see.
Visit our Privacy Policy to learn more. By continuing to use the site, you agree to this use of cookies and data.
  • Em Portugal
  • Lista de países
  • Para 7 dias
  • Temperatura da água
  • Mapas de satélite
  • Mapa do tempo
  • Widgets de tempo
  • user-avatar
    Iniciar Sessão

    Previsão horária em Lisboa

    Hoje, 19 Maio, Domingo

    Tempo Temperatura Precipitação Vento Pressão Humidade
    00:00 +15°C° 0.1 mm 1 m/s 758 mmHg 76%
    01:00 +14°C° 0.1 mm 1 m/s 758 mmHg 78%
    02:00 +13°C° 0.1 mm 0 m/s 757 mmHg 79%
    03:00 +13°C° 0 mm 0 m/s 757 mmHg 79%
    04:00 +13°C° 0 mm 0 m/s 757 mmHg 79%
    05:00 +13°C° 0 mm 0 m/s 757 mmHg 79%
    06:00 +15°C° 0 mm 0 m/s 757 mmHg 72%
    07:00 +18°C° 0 mm 1 m/s 757 mmHg 66%
    08:00 +20°C° 0 mm 1 m/s 757 mmHg 59%
    09:00 +21°C° 0 mm 1 m/s 757 mmHg 55%
    10:00 +21°C° 0 mm 2 m/s 757 mmHg 50%
    11:00 +24°C° 0 mm 2 m/s 757 mmHg 46%
    12:00 +24°C° 0 mm 3 m/s 757 mmHg 45%
    13:00 +23°C° 0 mm 4 m/s 757 mmHg 44%
    14:00 +23°C° 0 mm 4 m/s 756 mmHg 43%
    15:00 +22°C° 0 mm 5 m/s 756 mmHg 43%
    16:00 +22°C° 0 mm 5 m/s 756 mmHg 43%
    17:00 +21°C° 0 mm 5 m/s 756 mmHg 43%
    18:00 +19°C° 0 mm 5 m/s 757 mmHg 47%
    19:00 +16°C° 0 mm 5 m/s 757 mmHg 51%
    20:00 +15°C° 0 mm 4 m/s 757 mmHg 55%
    21:00 +14°C° 0 mm 4 m/s 757 mmHg 59%
    22:00 +13°C° 0 mm 4 m/s 757 mmHg 62%
    23:00 +13°C° 0 mm 3 m/s 757 mmHg 65%

    Amanhã, 20 Maio, Segunda-feira

    Tempo Temperatura Precipitação Vento Pressão Humidade
    00:00 +12°C° 0 mm 3 m/s 757 mmHg 67%
    01:00 +12°C° 0 mm 3 m/s 757 mmHg 69%
    02:00 +12°C° 0 mm 3 m/s 757 mmHg 71%
    03:00 +12°C° 0 mm 3 m/s 757 mmHg 72%
    04:00 +12°C° 0 mm 3 m/s 757 mmHg 73%
    05:00 +12°C° 0 mm 3 m/s 757 mmHg 74%
    06:00 +14°C° 0 mm 3 m/s 757 mmHg 65%
    07:00 +17°C° 0 mm 3 m/s 757 mmHg 56%
    08:00 +19°C° 0 mm 4 m/s 758 mmHg 47%
    09:00 +20°C° 0 mm 4 m/s 758 mmHg 45%
    10:00 +21°C° 0 mm 4 m/s 758 mmHg 42%
    11:00 +23°C° 0 mm 5 m/s 758 mmHg 40%
    12:00 +23°C° 0 mm 5 m/s 757 mmHg 42%
    13:00 +23°C° 0 mm 5 m/s 757 mmHg 44%
    14:00 +23°C° 0 mm 6 m/s 757 mmHg 46%
    15:00 +22°C° 0 mm 6 m/s 757 mmHg 51%
    16:00 +21°C° 0 mm 6 m/s 757 mmHg 56%
    17:00 +20°C° 0 mm 6 m/s 757 mmHg 61%
    18:00 +19°C° 0 mm 5 m/s 757 mmHg 68%
    19:00 +18°C° 0 mm 4 m/s 758 mmHg 74%
    20:00 +16°C° 0 mm 3 m/s 758 mmHg 81%
    21:00 +16°C° 0 mm 3 m/s 758 mmHg 84%
    22:00 +16°C° 0 mm 2 m/s 758 mmHg 87%
    23:00 +16°C° 0 mm 2 m/s 758 mmHg 89%

    Depois de amanhã, 21 Maio, Terça-feira

    Tempo Temperatura Precipitação Vento Pressão Humidade
    00:00 +16°C° 0 mm 2 m/s 758 mmHg 90%
    01:00 +16°C° 0 mm 2 m/s 757 mmHg 91%
    02:00 +16°C° 0 mm 2 m/s 757 mmHg 92%
    03:00 +15°C° 0 mm 2 m/s 757 mmHg 91%
    04:00 +15°C° 0 mm 2 m/s 757 mmHg 90%
    05:00 +15°C° 0 mm 2 m/s 757 mmHg 89%
    06:00 +17°C° 0 mm 2 m/s 758 mmHg 79%
    07:00 +19°C° 0 mm 3 m/s 758 mmHg 68%
    08:00 +21°C° 0 mm 3 m/s 758 mmHg 57%
    09:00 +22°C° 0 mm 3 m/s 758 mmHg 53%
    10:00 +23°C° 0 mm 4 m/s 758 mmHg 49%
    11:00 +25°C° 0 mm 4 m/s 758 mmHg 45%
    12:00 +25°C° 0 mm 5 m/s 758 mmHg 45%
    13:00 +26°C° 0 mm 5 m/s 758 mmHg 46%
    14:00 +26°C° 0 mm 6 m/s 758 mmHg 46%
    15:00 +24°C° 0 mm 6 m/s 758 mmHg 49%
    16:00 +23°C° 0 mm 6 m/s 758 mmHg 52%
    17:00 +22°C° 0 mm 6 m/s 757 mmHg 55%
    18:00 +21°C° 0 mm 6 m/s 758 mmHg 62%
    19:00 +19°C° 0 mm 5 m/s 759 mmHg 69%
    20:00 +18°C° 0 mm 4 m/s 759 mmHg 76%
    21:00 +17°C° 0 mm 4 m/s 759 mmHg 79%
    22:00 +17°C° 0 mm 4 m/s 759 mmHg 82%
    23:00 +16°C° 0 mm 3 m/s 759 mmHg 85%

    22 Maio, Quarta-feira

    Tempo Temperatura Precipitação Vento Pressão Humidade
    00:00 +16°C° 0 mm 3 m/s 759 mmHg 86%
    01:00 +14°C° 0 mm 3 m/s 759 mmHg 86%
    02:00 +14°C° 0 mm 3 m/s 758 mmHg 86%
    03:00 +14°C° 0 mm 3 m/s 758 mmHg 86%
    04:00 +15°C° 0 mm 2 m/s 758 mmHg 85%
    05:00 +15°C° 0 mm 2 m/s 758 mmHg 84%
    06:00 +17°C° 0 mm 2 m/s 759 mmHg 73%
    07:00 +19°C° 0 mm 2 m/s 759 mmHg 62%
    08:00 +23°C° 0 mm 2 m/s 759 mmHg 51%
    09:00 +24°C° 0 mm 3 m/s 759 mmHg 46%
    10:00 +26°C° 0 mm 3 m/s 759 mmHg 41%
    11:00 +28°C° 0 mm 3 m/s 759 mmHg 36%
    12:00 +28°C° 0 mm 4 m/s 759 mmHg 36%
    13:00 +28°C° 0 mm 5 m/s 759 mmHg 36%
    14:00 +28°C° 0 mm 6 m/s 758 mmHg 36%
    15:00 +26°C° 0 mm 6 m/s 758 mmHg 40%
    16:00 +24°C° 0 mm 6 m/s 759 mmHg 43%
    17:00 +23°C° 0 mm 6 m/s 759 mmHg 47%
    18:00 +21°C° 0 mm 6 m/s 759 mmHg 54%
    19:00 +19°C° 0 mm 5 m/s 760 mmHg 61%
    20:00 +17°C° 0 mm 5 m/s 760 mmHg 68%
    21:00 +17°C° 0 mm 4 m/s 760 mmHg 71%
    22:00 +15°C° 0 mm 4 m/s 760 mmHg 73%
    23:00 +16°C° 0 mm 3 m/s 760 mmHg 76%

    23 Maio, Quinta-feira

    Tempo Temperatura Precipitação Vento Pressão Humidade
    00:00 +16°C° 0 mm 3 m/s 760 mmHg 78%
    01:00 +14°C° 0 mm 3 m/s 759 mmHg 79%
    02:00 +14°C° 0 mm 3 m/s 759 mmHg 80%
    03:00 +14°C° 0 mm 3 m/s 759 mmHg 81%
    04:00 +14°C° 0 mm 3 m/s 759 mmHg 82%
    05:00 +14°C° 0 mm 3 m/s 760 mmHg 83%
    06:00 +17°C° 0 mm 4 m/s 760 mmHg 71%
    07:00 +20°C° 0 mm 4 m/s 760 mmHg 59%
    08:00 +22°C° 0 mm 5 m/s 760 mmHg 47%
    09:00 +23°C° 0 mm 5 m/s 760 mmHg 42%
    10:00 +26°C° 0 mm 5 m/s 760 mmHg 37%
    11:00 +28°C° 0 mm 6 m/s 760 mmHg 32%
    12:00 +28°C° 0 mm 6 m/s 760 mmHg 35%
    13:00 +28°C° 0 mm 6 m/s 760 mmHg 39%
    14:00 +28°C° 0 mm 7 m/s 759 mmHg 42%
    15:00 +27°C° 0 mm 7 m/s 759 mmHg 47%
    16:00 +24°C° 0 mm 7 m/s 760 mmHg 53%
    17:00 +23°C° 0 mm 7 m/s 760 mmHg 58%
    18:00 +21°C° 0 mm 7 m/s 760 mmHg 60%
    19:00 +20°C° 0 mm 6 m/s 760 mmHg 61%
    20:00 +17°C° 0 mm 6 m/s 761 mmHg 63%
    21:00 +16°C° 0 mm 6 m/s 761 mmHg 64%
    22:00 +16°C° 0 mm 6 m/s 761 mmHg 66%
    23:00 +15°C° 0 mm 6 m/s 761 mmHg 68%

    24 Maio, Sexta-feira

    Tempo Temperatura Precipitação Vento Pressão Humidade
    00:00 +15°C° 0 mm 6 m/s 760 mmHg 70%
    01:00 +15°C° 0 mm 6 m/s 760 mmHg 73%
    02:00 +14°C° 0 mm 6 m/s 760 mmHg 75%
    03:00 +15°C° 0 mm 6 m/s 760 mmHg 75%
    04:00 +15°C° 0 mm 6 m/s 760 mmHg 75%
    05:00 +15°C° 0 mm 6 m/s 760 mmHg 74%
    06:00 +17°C° 0 mm 6 m/s 760 mmHg 64%
    07:00 +20°C° 0 mm 6 m/s 760 mmHg 53%
    08:00 +22°C° 0 mm 6 m/s 760 mmHg 43%
    09:00 +26°C° 0 mm 6 m/s 760 mmHg 37%
    10:00 +28°C° 0 mm 6 m/s 760 mmHg 31%
    11:00 +30°C° 0 mm 6 m/s 759 mmHg 25%
    12:00 +32°C° 0 mm 6 m/s 759 mmHg 26%
    13:00 +32°C° 0 mm 7 m/s 759 mmHg 27%
    14:00 +32°C° 0 mm 8 m/s 758 mmHg 27%
    15:00 +31°C° 0 mm 8 m/s 758 mmHg 32%
    16:00 +28°C° 0 mm 8 m/s 758 mmHg 37%
    17:00 +27°C° 0 mm 8 m/s 758 mmHg 43%
    18:00 +24°C° 0 mm 8 m/s 758 mmHg 49%
    19:00 +23°C° 0 mm 8 m/s 759 mmHg 55%
    20:00 +21°C° 0 mm 7 m/s 759 mmHg 61%
    21:00 +21°C° 0 mm 7 m/s 759 mmHg 63%
    22:00 +20°C° 0 mm 6 m/s 759 mmHg 65%
    23:00 +20°C° 0 mm 6 m/s 759 mmHg 67%
    Mostrar mais